CAPE
3053 2920 2800 2719 2590 2572 2856 2898 2519 2678 3324 2640 2774 2836 2718 3178 3539 3228 3020 3153 3537 3701 3924 4472 4588 4655 4608 4369 4584 4461 4325 3493 2760 3580 3497 3254 3110 2590 1597 1677 2136 2857
3078 3018 3021 2609 3198 3263 3457 2744 2699 2810 3152 3588 2767 3331 3191 3128 3230 2948 2892 3086 3699 3372 4287 4212 4340 4198 4218 4031 4576 4169 4485 4219 3666 2104 2950 3222 3558 2643 1900 1896 1609 2294
2752 2840 2576 2482 2012 2193 1427 1725 2332 2273 2254 2003 2246 2828 2842 2834 2690 3300 3255 3180 2753 2764 4681 4288 4185 4257 4000 4096 4516 3878 4016 4386 3564 2356 3063 3262 2832 3147 2536 1244 1544 1575
2664 2403 2157 1910 1935 1932 1743 1823 2197 2223 1821 2364 2122 1592 1963 1724 2723 3044 3583 3246 3427 3235 3699 3683 3801 3723 3858 4026 4764 3977 4014 4424 3825 3686 3590 3609 3274 2498 2047 2353 1798 1847
2376 2274 2194 2006 1735 2073 2020 1820 1438 1579 1444 1866 1530 2254 2793 3106 2846 2740 3196 3392 3619 3144 3506 3633 4006 3859 4198 4006 4693 4478 3797 4033 3979 3864 4016 3770 3751 3177 2373 2186 2508 2319
3076 2635 2385 2040 1986 2301 1811 1502 1520 1474 1447 1074 1667 1581 1603 2786 2384 2253 2491 2606 2442 2429 2191 2591 3187 3255 3446 4065 4518 4478 3450 3117 3451 4004 4211 4058 3131 2918 2190 2550 2721 2345
2770 2974 2110 1892 1450 1546 1754 1592 1481 1574 1253 816 1545 1430 1452 1684 2143 2162 2515 2726 2477 2596 2182 2576 3114 3022 3018 3854 4386 4863 4469 3843 3787 4065 3969 4057 4232 3770 2560 2632 3104 2705
2585 2472 2543 1958 1322 1080 1310 1454 1448 1469 1563 1347 1223 1529 1462 1400 2008 1861 2191 2426 2274 2443 2288 2529 3115 3386 2634 3124 3956 4120 3835 2846 3437 4326 4166 4016 3950 3918 3882 3468 3365 3460
2577 2904 2867 2176 1362 972 767 797 1019 1206 1309 1481 889 786 1334 1328 1928 1756 2305 2512 2287 2527 2741 2638 3543 2940 2684 2787 3167 3860 3743 3082 2535 3498 3897 3778 3856 3895 3588 3615 3566 3384
2789 3006 2352 2258 1572 969 830 678 623 733 1284 1249 927 714 969 1301 1710 1721 2444 2698 2577 2959 3164 2410 3329 2887 2690 2734 3383 3531 3524 3683 3770 3423 3482 3815 3810 3598 3384 3578 3462 3530
2124 1869 1760 2316 1858 1020 753 650 497 490 937 754 896 639 653 1001 1512 2053 2291 2632 2036 2554 2834 2669 2584 2779 3090 2558 2631 2738 3231 3241 3224 3562 3588 3566 3364 3455 3465 3490 3414 3270
2821 2094 1086 1353 1951 1323 771 704 500 273 435 964 887 716 570 840 1292 1406 1860 2464 2048 2053 2368 2738 2654 2716 3149 3178 2635 2571 2862 2952 3303 3480 3140 3364 3267 3142 3244 3123 3017 3136
2842 2251 2152 1250 1283 1264 955 702 458 268 221 599 853 809 439 213 727 1239 1397 1956 2220 2115 2048 2570 2836 2591 2990 3351 3140 2863 2757 2777 2539 2895 2993 2995 2999 2829 2449 2738 2753 2705
2237 2258 2160 1451 1487 1430 1698 826 511 429 476 577 993 906 561 176 71 709 1228 1239 1932 1810 2139 2281 2954 2788 3176 3634 3278 2879 2573 2854 2830 2593 2361 2396 2244 2435 2289 2136 2438 2451
2060 2370 2054 1600 1484 2035 2384 1645 1064 640 711 637 1014 904 617 444 122 27 838 1028 1109 1702 1975 2037 2296 2732 2690 3264 3490 3394 3102 2378 2482 2461 2240 2015 1929 1601 1643 1836 1640 1448
1893 1906 1475 1884 2390 2336 1957 2025 1861 1641 402 581 581 704 915 888 576 326 201 1038 1174 1581 1866 1856 1806 1842 2340 2233 2622 3211 3282 2363 2122 2188 1937 1748 2050 1884 1620 1447 1169 1121
2693 2257 1283 1090 1155 1842 1941 1634 1093 1221 1050 1736 1281 940 964 1993 1231 900 448 210 1104 1160 1493 1321 1468 1119 1402 1872 2001 2418 2909 3054 2674 2596 2325 2271 2111 2255 2012 1469 1119 1174
1916 2068 2204 1988 1615 1644 1603 1791 1803 1416 1318 1361 1904 1997 2457 1659 1597 1407 1179 697 319 720 1087 1180 1314 908 165 1343 1704 1934 2321 2973 2763 2336 1826 2069 1930 1638 1678 1417 1274 980
1787 1816 1933 1550 1278 1656 1915 1871 1788 1584 1862 1696 1202 1188 1158 2052 2277 2367 1956 1615 1072 1181 810 1214 1470 1100 899 54 1208 1584 1854 2205 2477 2367 1768 1177 1245 1693 1643 1739 1741 1416
859 986 1446 1779 1788 2200 1888 2150 1881 1906 2094 2061 1844 1566 1368 1179 1976 2157 2294 2895 2240 1839 2072 1872 1592 1372 1137 989 796 1140 1444 1735 2445 2018 1822 1338 993 1019 983 1505 1682 1580
574 706 858 1319 1671 1805 2023 2171 1679 1654 2000 2146 2125 1887 1578 1846 2373 1715 1829 2162 2519 2039 1894 1543 1456 978 1102 1140 1020 894 1067 1355 2154 1697 1048 819 863 856 1129 1046 1655 1695
665 603 518 654 945 1184 1431 1780 1575 1562 1680 2026 2101 2372 1960 1963 2265 2306 2215 2076 2388 2236 2031 1673 1784 1492 1040 927 956 1084 976 950 1570 1952 1491 1006 638 572 817 1535 1611 1480
531 645 565 492 519 997 1203 1471 1318 1159 1582 1964 1840 2090 1886 1871 2292 2573 2562 2282 2082 2050 1724 2767 2154 1637 1195 1068 860 1017 1014 1076 1625 2030 2082 1700 1157 1038 1012 1051 1010 1128
297 441 541 579 591 657 896 1482 1660 1419 1370 1889 1973 1991 2269 2163 2204 2164 2524 2317 1872 1873 1894 2264 2098 1855 1505 1213 1169 1170 1142 1151 1588 2065 2226 2129 1946 1743 1365 1115 1039 1180
24 224 270 399 509 585 912 684 1522 1648 1810 1836 1643 1553 1986 2159 2270 2233 2236 2518 2425 1951 1868 2206 2109 2014 1694 1482 1256 1285 1334 1265 1890 2212 2330 2377 2264 2209 2062 1870 1860 1918
0 19 53 89 208 274 554 924 741 644 870 960 1067 1077 1056 1386 1658 1853 2169 2500 2455 2440 2239 1909 1604 1750 1903 1552 1400 1353 1387 1459 1518 2350 2302 2372 2474 2487 2472 2409 2274 2292
Wind_Speed
8 8 8 8 8 6 5 4 3 3 4 2 3 1 2 1 2 3 3 3 4 3 5 3 3 3 2 2 2 1 4 3 3 3 2 2 2 5 4 2 2 3
8 8 9 9 9 8 7 5 4 5 4 5 3 3 3 4 2 5 3 3 1 3 2 3 2 2 2 1 1 2 1 2 3 3 4 3 2 3 5 2 2 1
8 8 7 7 6 5 3 5 7 6 5 3 4 5 3 2 3 3 3 4 3 3 1 1 1 1 1 0 1 1 2 2 2 2 5 4 3 2 2 3 1 1
7 8 8 6 7 6 7 8 8 8 6 6 4 3 2 4 4 4 4 4 3 2 4 1 1 0 1 1 1 1 2 1 2 0 3 4 3 2 2 2 1 1
8 7 8 8 9 10 10 10 7 7 6 8 4 6 5 7 6 5 5 5 4 3 4 3 2 2 2 2 2 1 2 2 2 3 2 2 3 2 3 3 1 1
10 9 8 9 10 11 9 9 9 9 7 7 7 7 6 7 7 5 6 6 5 4 4 3 3 2 1 2 3 3 2 2 3 4 4 3 2 4 3 3 3 1
11 10 7 8 7 9 10 10 10 10 9 8 10 8 8 6 6 5 6 6 6 5 4 5 3 3 3 4 4 4 5 5 6 3 4 4 3 1 2 3 5 4
10 10 8 8 6 8 8 9 11 10 12 10 9 10 9 8 7 5 6 6 5 7 4 6 6 4 4 5 4 4 3 3 4 5 4 4 5 3 3 3 5 6
12 10 9 7 6 6 6 6 9 10 11 11 9 9 9 9 10 6 8 7 6 7 8 6 8 6 4 5 5 6 4 2 4 5 4 4 4 4 4 5 4 6
14 12 8 7 6 6 6 6 7 9 11 10 10 9 10 9 10 9 9 9 7 8 9 7 7 7 6 4 6 7 6 4 4 5 6 5 5 5 5 6 6 6
18 11 9 8 6 7 5 6 6 7 11 10 10 9 10 11 10 11 11 11 8 8 9 8 6 6 7 6 5 5 6 6 4 4 6 7 6 7 6 7 7 6
22 23 15 8 8 7 6 6 6 7 9 11 10 10 11 12 12 10 12 12 10 9 8 9 8 7 7 6 6 6 5 5 5 5 4 5 6 6 7 7 7 7
22 21 20 15 13 12 10 10 7 6 7 10 11 11 10 9 13 13 13 13 13 11 9 9 9 8 8 7 6 6 7 6 5 6 6 6 6 5 5 6 6 7
28 28 29 30 27 19 15 12 10 10 10 11 13 11 10 10 nan 14 15 13 13 12 11 10 11 10 10 10 8 6 7 8 7 5 6 7 6 6 5 5 7 7
35 35 32 27 26 26 21 16 15 15 14 13 14 12 10 9 10 nan 16 15 14 14 13 11 11 12 12 12 12 10 7 7 9 7 6 6 8 7 7 7 6 6
37 38 33 27 24 25 30 33 26 17 13 14 13 13 14 13 12 11 12 17 16 16 15 14 12 13 15 15 15 12 11 8 8 9 7 6 7 8 7 8 6 6
35 36 33 26 25 27 30 30 33 34 26 20 17 16 16 17 15 13 10 12 16 16 16 14 13 12 18 20 17 15 13 11 8 10 9 7 6 8 8 7 8 8
34 33 33 32 31 32 31 35 34 31 32 34 30 22 20 18 17 16 16 13 12 15 15 14 13 12 18 21 20 18 15 12 11 9 9 10 8 6 7 8 7 7
38 36 35 37 36 30 29 33 34 32 31 33 35 36 36 27 20 20 20 18 16 18 16 16 16 14 17 nan 20 20 17 14 11 11 9 8 9 8 8 8 10 10
40 39 37 37 34 32 31 32 32 33 33 32 30 31 26 25 25 22 21 21 19 18 19 19 20 19 20 19 20 20 20 17 14 10 10 9 10 9 9 10 9 9
42 40 38 39 38 35 33 33 31 31 31 31 30 28 24 22 23 25 27 27 25 22 21 19 16 23 22 24 23 24 23 22 18 12 9 11 11 11 12 11 13 11
43 42 40 39 39 36 34 34 32 32 29 30 30 29 30 28 24 24 26 24 22 23 24 20 19 28 30 22 18 25 30 27 23 18 14 12 12 15 15 15 14 13
42 42 41 40 39 38 36 33 32 31 28 27 27 28 28 26 24 22 22 21 19 21 21 21 21 21 22 26 23 17 26 28 27 24 20 16 14 14 15 16 16 16
39 40 40 41 40 41 38 34 32 30 27 27 29 30 27 25 24 21 20 18 18 18 19 19 21 23 22 26 27 27 23 25 27 26 24 21 18 18 18 17 16 11
nan 38 37 39 41 43 41 39 38 35 32 32 32 32 31 27 25 23 20 19 17 16 17 20 20 23 26 26 28 29 28 26 27 28 25 22 21 20 21 21 21 18
nan nan nan nan 39 41 42 40 39 39 38 35 32 30 29 26 25 24 22 19 17 17 19 19 19 20 26 25 26 27 28 28 28 29 27 25 24 23 23 22 21 21
Wind_Direction
213 205 206 203 206 199 206 198 169 170 176 227 259 237 291 355 113 321 46 63 61 85 85 78 62 66 61 45 5 23 106 73 82 341 2 34 71 101 97 117 123 206
220 212 208 210 209 200 200 202 197 188 200 181 226 257 261 306 25 323 346 353 49 61 82 70 77 76 64 18 24 360 25 71 81 358 347 8 37 66 105 93 90 221
226 216 220 219 214 210 193 205 207 200 210 193 214 236 265 289 312 273 299 304 333 3 23 144 109 94 64 39 339 12 5 19 32 37 327 344 1 56 84 85 305 75
238 225 226 222 214 216 198 215 213 210 211 226 206 256 257 294 280 295 275 297 289 287 306 345 124 67 143 17 301 317 330 354 332 102 301 317 343 10 25 103 79 347
267 241 230 225 217 218 210 213 221 231 209 232 233 222 232 235 269 287 278 284 271 278 281 289 275 232 221 195 245 241 302 302 292 273 258 292 320 358 26 1 50 139
272 259 240 235 225 225 229 217 217 236 231 250 248 240 235 236 261 270 286 303 308 311 310 309 299 290 295 231 227 211 223 272 278 280 287 289 328 337 19 326 317 290
285 275 275 250 247 236 235 235 227 222 245 233 247 246 249 256 255 262 280 291 300 292 308 289 279 279 266 241 236 228 194 214 249 259 271 270 272 279 347 294 304 303
274 279 278 262 269 255 246 247 245 230 235 237 250 252 252 275 269 275 269 280 292 283 267 276 288 272 297 269 269 254 236 216 238 229 256 257 263 262 241 229 263 284
256 265 269 280 290 274 287 275 260 256 241 241 243 257 252 254 275 277 262 266 264 258 274 254 275 294 281 283 292 289 277 236 259 273 258 260 264 252 261 260 246 268
248 247 275 284 291 277 290 292 277 272 263 252 250 249 261 247 257 274 264 263 262 256 264 262 260 284 292 287 286 297 299 288 230 263 283 276 264 263 266 263 267 262
214 236 250 265 277 269 284 292 293 286 272 275 269 261 261 263 245 255 264 265 272 260 263 269 264 269 281 301 297 287 300 302 291 252 263 273 275 267 266 263 266 267
230 221 212 242 261 262 265 275 279 277 282 279 279 270 256 268 268 254 256 267 267 264 260 267 268 270 274 284 304 306 297 309 295 287 277 260 262 264 264 266 268 276
230 231 214 202 235 238 240 250 256 268 276 285 280 273 273 268 278 271 257 258 265 265 266 267 278 288 280 284 285 293 303 307 321 309 292 278 273 268 266 266 265 263
231 221 218 209 200 216 232 233 245 249 252 257 273 279 278 275 nan 281 274 265 264 266 261 265 273 284 283 284 289 289 291 300 309 305 309 303 294 284 283 276 274 276
237 231 228 218 207 196 208 226 229 238 247 246 255 274 274 273 266 nan 277 280 271 264 267 270 279 286 285 285 289 295 286 296 304 311 311 296 299 300 288 276 262 259
236 238 229 213 209 218 218 210 203 212 231 244 245 255 260 263 259 254 260 280 279 275 274 278 276 281 291 308 301 289 294 302 294 298 304 296 289 285 288 287 286 272
232 233 235 228 222 226 230 228 217 198 193 213 233 245 247 255 264 262 254 252 276 279 279 280 280 283 299 308 308 309 297 291 286 283 294 297 291 276 274 270 268 278
233 236 238 234 225 219 226 232 224 216 211 197 195 211 237 240 248 254 250 243 244 266 279 276 272 282 293 305 306 308 301 284 284 283 280 289 294 287 278 280 272 257
225 230 234 238 232 226 229 231 233 235 227 220 212 207 202 206 225 240 245 246 238 232 244 267 270 281 286 nan 303 303 304 290 273 272 279 274 281 290 285 274 273 278
226 226 229 233 237 235 235 236 235 236 244 246 241 231 224 219 209 219 234 245 250 249 241 237 247 276 290 292 297 299 297 291 270 264 257 260 263 269 276 280 281 271
229 229 230 231 233 233 232 240 242 238 237 243 251 256 251 241 238 236 233 227 227 236 247 246 251 263 288 298 300 299 298 289 273 273 256 246 249 256 257 259 263 273
233 231 231 233 235 235 235 239 238 235 236 241 243 243 242 242 243 246 242 235 234 233 237 242 243 245 263 262 281 300 303 285 283 279 267 252 244 241 246 252 257 259
237 236 234 234 237 238 236 236 233 231 230 239 245 248 252 257 259 259 261 262 256 252 246 245 247 243 246 267 277 278 285 285 291 286 282 277 267 260 251 248 248 254
236 238 238 237 238 238 235 233 231 233 230 234 233 233 240 245 249 253 260 264 266 264 265 262 258 261 268 269 275 279 280 280 284 285 285 286 283 278 273 266 262 254
nan 240 240 240 242 242 238 232 229 230 234 235 232 230 229 232 237 236 238 244 247 250 260 263 255 263 276 271 276 283 286 278 276 278 280 282 281 277 275 272 269 268
nan nan nan nan 248 246 244 239 235 233 231 231 229 228 232 232 232 232 228 231 240 251 255 259 258 259 272 278 277 281 288 278 276 276 279 280 277 274 271 269 267 265